This is the latest recevied weather packets stored in our database for station/object KD8FRE. If no packets are shown the sender has not sent any weather packets the latest 10 day(s).
| Time | Temp. | Humidity | Pressure | Rain* | Wind** | Luminosity | Snow |
|---|---|---|---|---|---|---|---|
| 1777377722 | 15° C | 95% | 1006.8 hPa | 0 mm | - | 29 W/m² | - |
| 1777377416 | 15° C | 95% | 1006.7 hPa | 0 mm | - | 16 W/m² | - |
| 1777377114 | 15° C | 95% | 1006.6 hPa | 0 mm | - | 18 W/m² | - |
| 1777376811 | 15° C | 95% | 1006.7 hPa | 0 mm | - | 23 W/m² | - |
| 1777376508 | 15° C | 94% | 1006.7 hPa | 0 mm | - | 34 W/m² | - |
| 1777376203 | 15° C | 94% | 1006.5 hPa | 0 mm | - | 14 W/m² | - |
| 1777375898 | 15° C | 94% | 1006.6 hPa | 0 mm | - | 11 W/m² | - |
| 1777375593 | 15° C | 93% | 1006.6 hPa | 0 mm | - | 15 W/m² | - |
| 1777375288 | 15° C | 93% | 1006.6 hPa | 0 mm | - | 5 W/m² | - |
| 1777374985 | 15° C | 93% | 1006.2 hPa | 0 mm | - | 3 W/m² | - |
| 1777374675 | 15.56° C | 92% | 1006.5 hPa | 0 mm | - | 3 W/m² | - |
| 1777374371 | 15.56° C | 92% | 1006.4 hPa | 0 mm | - | 3 W/m² | - |
| 1777374068 | 15.56° C | 92% | 1006.5 hPa | 0 mm | - | 2 W/m² | - |
| 1777373764 | 15.56° C | 92% | 1006.3 hPa | 0 mm | - | 1 W/m² | - |
| 1777373461 | 15.56° C | 92% | 1006 hPa | 0 mm | - | 1 W/m² | - |
| 1777373156 | 15.56° C | 92% | 1005.7 hPa | 0 mm | - | 1 W/m² | - |
| 1777372852 | 15.56° C | 91% | 1005.9 hPa | 0 mm | - | 0 W/m² | - |
| 1777372547 | 15.56° C | 91% | 1005.9 hPa | 0 mm | - | 0 W/m² | - |
| 1777372246 | 15.56° C | 91% | 1005.9 hPa | 0 mm | - | 0 W/m² | - |
| 1777371945 | 15.56° C | 91% | 1005.7 hPa | 0 mm | - | 0 W/m² | - |
| 1777371642 | 15.56° C | 91% | 1005.9 hPa | 0 mm | - | 0 W/m² | - |
| 1777371339 | 15.56° C | 91% | 1005.6 hPa | 0 mm | - | 0 W/m² | - |
| 1777371035 | 15.56° C | 91% | 1005.5 hPa | 0 mm | - | 0 W/m² | - |
| 1777370731 | 15.56° C | 92% | 1005.7 hPa | 0 mm | - | 0 W/m² | - |
| 1777370428 | 15.56° C | 92% | 1005.6 hPa | 0 mm | - | 0 W/m² | - |
* Rain latest hour (hover to see other rain measurements)
** Current wind speed in m/s (hover to see current wind gust speed)